Location: Zagreb
(45.8000°N, 16.0000°E)
Time: 04:18:18
(UTC+01:00)

Transit 2A - All Passes

Search period start: 25 January 2020 00:00
Search period end: 04 February 2020 00:00
Orbit: 601 x 958 km, 66.7° (Epoch: 24 January)

Date Brightness Start Highest point End Pass type
(mag) Time Alt. Az. Time Alt. Az. Time Alt. Az.
25 Jan - 02:28:07 10° N 02:30:09 13° NNE 02:32:14 10° ENE visible
25 Jan - 04:09:35 10° NNW 04:14:15 57° NE 04:19:21 10° SE visible
25 Jan - 05:53:25 10° WNW 05:57:06 22° WSW 06:01:02 10° SSW visible
25 Jan - 18:53:25 10° SSE 18:56:54 23° ESE 19:00:21 10° ENE visible
25 Jan - 20:35:38 10° WSW 20:39:47 41° NW 20:43:56 10° NNE visible
26 Jan - 03:35:35 10° NNW 03:40:03 40° NE 03:44:54 10° ESE visible
26 Jan - 05:18:51 10° NW 05:23:07 31° WSW 05:27:43 10° S visible
26 Jan - 18:20:23 10° SE 18:22:58 15° ESE 18:25:31 10° ENE visible
26 Jan - 20:01:15 10° SW 20:05:35 60° NW 20:09:55 10° NNE visible
26 Jan - 21:48:02 10° NW 21:49:41 12° NNW 21:51:21 10° N night (unlit)
27 Jan - 03:01:39 10° NNW 03:05:47 30° NE 03:10:16 10° ESE visible
27 Jan - 04:44:28 10° NW 04:49:04 45° WSW 04:54:06 10° S visible
27 Jan - 19:27:03 10° SSW 19:31:27 90° SE 19:35:49 10° NNE visible
27 Jan - 21:12:37 10° WNW 21:15:14 15° NW 21:17:52 10° N visible
28 Jan - 02:27:46 10° N 02:31:29 22° NE 02:35:26 10° E night (unlit)
28 Jan - 04:10:14 10° NW 04:15:00 66° WSW 04:20:15 10° SSE visible
28 Jan - 18:53:02 10° SSW 18:57:21 59° ESE 19:01:38 10° NE visible
28 Jan - 20:37:35 10° W 20:40:51 20° NW 20:44:09 10° N visible
29 Jan - 01:53:58 10° N 01:57:07 17° NE 02:00:25 10° E night (unlit)
29 Jan - 03:36:04 10° NNW 03:40:53 87° ENE 03:46:12 10° SSE visible
29 Jan - 05:21:02 10° WNW 05:23:30 14° WSW 05:26:04 10° SW visible
29 Jan - 18:19:15 10° S 18:23:19 38° ESE 18:27:21 10° NE visible
29 Jan - 20:02:47 10° WSW 20:06:31 27° NW 20:10:18 10° NNE visible
30 Jan - 01:20:21 10° N 01:22:42 13° NE 01:25:07 10° ENE night (unlit)
30 Jan - 03:01:59 10° NNW 03:06:44 61° NE 03:11:56 10° SE night (unlit)
30 Jan - 04:45:58 10° WNW 04:49:33 20° WSW 04:53:22 10° SSW visible
30 Jan - 17:45:43 10° SSE 17:49:19 25° ESE 17:52:53 10° ENE visible
30 Jan - 19:28:10 10° WSW 19:32:16 38° NW 19:36:22 10° NNE visible
31 Jan - 00:47:14 10° NNE 00:48:12 11° NNE 00:49:13 10° NE night (unlit)
31 Jan - 02:27:58 10° NNW 02:32:32 44° NE 02:37:31 10° ESE night (unlit)
31 Jan - 04:11:21 10° NW 04:15:34 29° WSW 04:20:08 10° S night (unlit)
31 Jan - 17:12:34 10° SSE 17:15:22 17° ESE 17:18:09 10° ENE daylight
31 Jan - 18:53:45 10° SW 18:58:02 56° NW 19:02:21 10° NNE visible
31 Jan - 20:40:50 10° NW 20:42:13 11° NNW 20:43:37 10° NNW visible
01 Feb - 01:54:01 10° NNW 01:58:18 32° NE 02:02:56 10° ESE night (unlit)
01 Feb - 03:36:56 10° NW 03:41:32 42° WSW 03:46:34 10° S night (unlit)
01 Feb - 16:40:31 10° ESE 16:41:29 11° ESE 16:42:26 10° E daylight
01 Feb - 18:19:31 10° SW 18:23:53 84° WNW 18:28:16 10° NNE visible
01 Feb - 20:05:18 10° WNW 20:07:45 15° NW 20:10:14 10° N visible
02 Feb - 01:20:07 10° NNW 01:24:00 24° NE 01:28:09 10° E night (unlit)
02 Feb - 03:02:40 10° NW 03:07:28 61° WSW 03:12:45 10° SSE night (unlit)
02 Feb - 17:45:28 10° SSW 17:49:47 65° ESE 17:54:07 10° NE visible
02 Feb - 19:30:12 10° W 19:33:21 19° NW 19:36:32 10° N visible
03 Feb - 00:46:18 10° N 00:49:39 19° NE 00:53:10 10° E night (unlit)
03 Feb - 02:28:30 10° NNW 02:33:22 87° WSW 02:38:44 10° SSE night (unlit)
03 Feb - 04:13:44 10° W 04:15:56 13° WSW 04:18:13 10° SW night (unlit)
03 Feb - 17:11:38 10° S 17:15:44 41° ESE 17:19:51 10° NE daylight
03 Feb - 18:55:22 10° WSW 18:59:00 26° NW 19:02:43 10° NNE visible
